Zurück zum Katalog

STARLINK-31251

AktivKommunikationVLEO
NORAD 58836·PAYLOAD·🇺🇸 United States

Gestartet Jan 24, 2024 von Vandenberg Space Force Base

Loading…

Nächste Überflüge (nächste 24 Stunden)

TLE

AktuellSource: CelesTrak SupGP

Epoche: Sep 14, 2026, 13:39 UTC

1 58836C 24017L   26257.56923611 -.00053800  00000+0 -15894-2 0  2572
2 58836  53.1607  45.2755 0001225  89.3418  95.6073 15.34419445    16

Verfolge STARLINK-31251 in Echtzeit mit AllMySat

Download on the App Store